Weather in Severouralsk

Russia / Sverdlovsk Oblast     60°09′11″N   59°57′09″E
temp.,
°C
wind,
m/s
gust,
m/s
humid.,
%
clouds,
%
prec.,
mm/h
press.,
hPa
HPBL,
m
20 june, sun
sun2023:00+14wsw289385 0.3 1004149
02:00+15nw514740 0.0 10051280
05:00+9wnw513670 0.0 1008969
08:00+11nw718460 0.0 10081169
11:00+14nw818340 0.0 10101779
14:00+16nw815300 0.0 10122149
17:00+17nnw713315 0.0 10142327
20:00+15nnw51036100 0.0 10172173
21 june, mon
mon2123:00+8nnw26565 0.0 1020121
02:00+5nnw22678 0.0 102218
05:00+5nw12705 0.0 102345
08:00+12n12475 0.0 1024633
11:00+17nw0233100 0.0 10221371
14:00+19se1328100 0.0 10202016
17:00+12w3769100 0.1 1021375
20:00+11w008087 0.0 102049
22 june, tue
tue2223:00+10sw0082100 0.0 101913
02:00+10sw118288 0.0 101818
05:00+11ssw118093 0.0 101856
08:00+15ene126129 0.0 1018506
11:00+17ne1157100 0.0 1018723
14:00+23n134512 0.0 10171411
17:00+21ene2250100 0.0 1016605
20:00+18ene3660100 0.0 1017495
23 june, wed
wed2323:00+12n0098100 1.6 101923
02:00+12sw1298100 0.8 101969
05:00+12ssw1498100 1.4 1019161
08:00+13s2395100 0.1 1019259
11:00+14sse238499 0.1 1019599
14:00+17ssw226693 0.0 1019982
17:00+19ssw116290 0.1 10191106
20:00+18s216638 0.0 1018691
24 june, thu
thu2423:00+12ssw229562 0.0 101816
02:00+11wsw11960 0.0 101810
05:00+11wsw11955 0.0 101819
08:00+19sw11616 0.0 1016365
11:00+25sse113713 0.0 10151377
14:00+28sse23345 0.0 10131895
17:00+29s243465 0.0 10112307
20:00+24sse2454100 0.0 1009109